SL-14 DEB, 45294

Orbit data source: Space-Track

SL-14 DEB, 45294 is space debris in LEO originally from a launch on Thu, 15 Aug 1991 UTC launched from the Plesetsk Missile And Space Complex (PKMTR). Debris objects in space refer to the collection of defunct objects orbiting the Earth. Examples of debris include non-operational satellites, rocket bodies, and fragments generated from explosions, collisions, or faulty payload assembly.

Loading next visibility...
Identifier
45294, 1991-056AG
Orbit
LEO
Country
Flag of CISCIS
Related business
Manufacturer
Unknown
Mission
Spacecraft
Bus & Motor
Unknown
Mass
Unknown
Launch date (UTC)
1991-08-15 (35 years ago)
Launch vehicle
Unknown
Launch site
Plesetsk Missile And Space Complex (PKMTR)
Object type
Payload
Rocket body
Debris
Shape & HBR
Unknown shape, 0.1 m
Radar Cross Section
Medium (>0.1 m² and <1 m²)

Expand to show TLE details & history
Last TLE update: 2 days ago

TLE from 2 days ago
0 SL-14 DEB
1 45294U 91056AG  26255.75133777  .00000751  00000-0  17902-2 0  9999
2 45294  82.5643  73.8429 0013383 233.4871 126.5023 13.21708541315339
Epoch: 2026-09-12T18:01Z
TLE epoch observation values (Epoch: 2026-09-12T18:01:55.583Z)
Latitude
0.00007°
Longitude
171.60547°
Altitude
1,187.041 km
Speed
7.257 km/s
True Right ascension
04h 55m 22s
True Declination
0° 00' 00"
Sunlit
Object was in daylight at epoch
Visualization orbit readout
Latitude
Unknown
Longitude
Unknown
Altitude
Unknown
Speed
Unknown
Apparent Right ascension
Unknown
Apparent Declination
Unknown
Sunlit
N/A
Visualization observer readout
Local Sidereal Time
15:16:42
Azimuth
Unknown
Elevation
Unknown
Doppler factor
Unknown
Orbital elements
Apogee altitude
1,185.548 km
Perigee altitude
1,165.33 km
Semi-major axis
7,553.576 km
Eccentricity
0.00134
Inclination
82.5643°
RAAN
73.8429°
Arg. of periapsis
233.4871°
True anomaly
126.62545°
Mean anomaly
126.5023°
Eccentric anomaly
126.56389°
Mean motion
3.30609 °/min
Orbital period
108.89 mins
BSTAR
0.0017902
Loading maneuver chart data...
Computing Atmospheric mass density...
Loading historical data...
Loading historical data...
Loading historical data...
Loading historical data...
Loading historical data...
Loading historical data...
Loading historical data...

Documentation

Showing up to 5 results
|